This is the latest recevied weather packets stored in our database for station/object TA3KB-13. If no packets are shown the sender has not sent any weather packets the latest 10 day(s).
| Time | Temp. | Humidity | Pressure | Rain* | Wind** | Luminosity | Snow |
|---|---|---|---|---|---|---|---|
| 1778315310 | 25.56° C | 29% | 458.6 hPa | 0 mm | - | - | - |
| 1778314859 | 25.56° C | 30% | 458.5 hPa | 0 mm | - | - | - |
| 1778314410 | 25° C | 29% | 458.5 hPa | 0 mm | - | - | - |
| 1778313959 | 25° C | 29% | 458.5 hPa | 0 mm | - | - | - |
| 1778313510 | 24.44° C | 30% | 458.5 hPa | 0 mm | - | - | - |
| 1778313059 | 24.44° C | 29% | 458.5 hPa | 0 mm | - | - | - |
| 1778312609 | 24.44° C | 29% | 458.5 hPa | 0 mm | - | - | - |
| 1778312159 | 24.44° C | 29% | 458.5 hPa | 0 mm | - | - | - |
| 1778311709 | 25° C | 29% | 458.5 hPa | 0 mm | - | - | - |
| 1778311259 | 25.56° C | 31% | 458.5 hPa | 0 mm | - | - | - |
| 1778310809 | 25.56° C | 31% | 458.5 hPa | 0 mm | - | - | - |
| 1778310359 | 26.11° C | 31% | 458.5 hPa | 0 mm | - | - | - |
| 1778309909 | 26.67° C | 33% | 458.6 hPa | 0 mm | - | - | - |
| 1778309459 | 26.67° C | 35% | 458.6 hPa | 0 mm | - | - | - |
| 1778309009 | 26.11° C | 36% | 458.5 hPa | 0 mm | - | - | - |
| 1778308559 | 25° C | 34% | 458.6 hPa | 0 mm | - | - | - |
| 1778308109 | 24.44° C | 33% | 458.6 hPa | 0 mm | - | - | - |
| 1778307659 | 23.89° C | 36% | 458.5 hPa | 0 mm | - | - | - |
| 1778307209 | 23.33° C | 36% | 458.5 hPa | 0 mm | - | - | - |
| 1778306759 | 23.33° C | 40% | 458.5 hPa | 0 mm | - | - | - |
| 1778306308 | 22.22° C | 40% | 458.5 hPa | 0 mm | - | - | - |
| 1778305859 | 21.67° C | 39% | 458.5 hPa | 0 mm | - | - | - |
| 1778305408 | 21.67° C | 39% | 458.5 hPa | 0 mm | - | - | - |
| 1778304958 | 21.67° C | 40% | 458.5 hPa | 0 mm | - | - | - |
| 1778304508 | 22.22° C | 40% | 458.5 hPa | 0 mm | - | - | - |
* Rain latest hour (hover to see other rain measurements)
** Current wind speed in m/s (hover to see current wind gust speed)